CDT,Max TemperatureF,Mean TemperatureF,Min TemperatureF,Max Dew PointF,MeanDew PointF,Min DewpointF,Max Humidity, Mean Humidity, Min Humidity, Max Sea Level PressureIn, Mean Sea Level PressureIn, Min Sea Level PressureIn, Max VisibilityMiles, Mean VisibilityMiles, Min VisibilityMiles, Max Wind SpeedMPH, Mean Wind SpeedMPH, Max Gust SpeedMPH,PrecipitationIn, CloudCover, Events, WindDirDegrees
2013-8-1,82,70,57,65,60,56,97,69,40,30.05,30.01,29.91,10,8,2,16,6,21,0.00,1,,256
2013-8-2,85,76,66,70,65,59,87,69,51,29.97,29.90,29.86,10,9,1,16,6,24,0.27,4,Rain,260
2013-8-3,81,71,60,63,56,53,93,66,39,30.14,30.06,29.99,10,10,10,13,3,16,0.00,1,,347
2013-8-4,81,68,55,60,55,52,93,66,39,30.20,30.15,30.09,10,10,10,8,2,13,0.00,1,,121
2013-8-5,74,66,58,67,62,54,93,83,73,30.08,29.97,29.86,10,8,1,20,7,25,0.49,6,Rain-Thunderstorm,98
2013-8-6,85,76,67,75,69,66,97,81,65,29.90,29.85,29.81,10,6,0,13,5,15,0.00,6,Fog,207
2013-8-7,87,78,68,72,68,60,93,72,51,29.96,29.85,29.78,10,10,6,15,6,18,T,2,Rain,314
2013-8-8,82,73,64,64,61,59,93,72,51,30.02,29.98,29.95,10,10,10,13,4,15,0.00,3,,52
2013-8-9,82,72,61,66,62,57,93,74,54,30.08,30.01,29.99,10,10,5,13,5,16,0.00,1,,282
2013-8-10,81,70,59,59,56,51,90,63,36,30.17,30.13,30.09,10,10,10,14,5,18,0.00,1,,326
2013-8-11,83,70,57,65,60,55,93,72,51,30.15,30.09,30.01,10,10,10,14,5,21,0.00,2,,209
2013-8-12,85,76,67,68,63,59,81,65,48,30.02,29.97,29.91,10,10,10,15,6,21,0.00,1,,278
2013-8-13,76,64,52,58,52,46,89,64,38,30.17,30.08,29.98,10,10,10,16,5,23,0.00,1,,35
2013-8-14,76,62,47,55,50,44,93,63,33,30.23,30.19,30.14,10,10,10,10,2,14,0.00,2,,120
2013-8-15,76,65,53,57,53,50,93,67,41,30.18,30.15,30.10,10,10,10,10,1,12,0.00,1,,188
2013-8-16,81,66,51,59,54,49,96,66,35,30.20,30.17,30.14,10,10,9,10,2,15,0.00,1,,46
2013-8-17,80,66,52,60,55,52,93,68,42,30.23,30.19,30.15,10,9,2,13,4,18,0.00,0,,111
2013-8-18,81,67,52,62,56,51,93,68,42,30.22,30.16,30.10,10,9,5,12,2,15,0.00,0,,118
2013-8-19,84,71,57,66,61,55,93,72,51,30.12,30.08,30.02,10,9,7,12,4,15,0.00,1,,190
2013-8-20,86,75,64,66,64,61,87,66,45,30.09,30.04,30.00,10,9,5,13,6,17,0.00,0,,187
2013-8-21,89,80,70,68,66,64,84,67,50,30.06,30.02,29.96,10,9,6,14,8,20,0.00,1,,203
2013-8-22,79,72,65,67,66,64,93,79,64,30.13,30.06,29.99,10,10,8,20,6,25,0.00,3,,65
2013-8-23,85,72,59,67,62,59,100,72,44,30.17,30.13,30.09,10,4,0,15,6,20,0.00,3,Fog,96
2013-8-24,87,74,60,69,63,55,84,68,51,30.23,30.17,30.13,10,10,9,13,7,16,0.00,0,,129
2013-8-25,90,81,71,69,66,64,79,62,44,30.23,30.17,30.12,10,10,9,15,8,21,0.00,0,,195
2013-8-26,92,79,66,72,68,62,87,67,47,30.14,30.07,29.98,10,10,9,13,5,15,0.00,0,,216
2013-8-27,96,85,73,71,69,65,87,65,43,29.99,29.93,29.85,10,10,10,20,9,25,0.00,0,,235
2013-8-28,97,86,74,76,70,64,85,67,48,30.00,29.94,29.89,10,10,2,16,8,20,0.00,2,,282
2013-8-29,88,80,71,74,70,66,87,74,61,30.07,30.01,29.96,10,10,6,12,6,15,0.00,4,,100
2013-8-30,98,85,72,75,71,67,93,66,38,29.95,29.84,29.75,10,9,5,25,6,30,0.00,0,,209
2013-8-31,86,78,69,69,67,64,93,76,59,29.82,29.79,29.76,10,10,7,16,7,20,0.00,2,,66